Location: Kikino
(54.4440°N, 112.0940°W)
Time: 19:34:58
(UTC+00:00)

A-11 Canister half - Pass Details

Date: 22 May 2024
Orbit: 1525 x 1683 km, 47.3° (Epoch: 12 June)

Event Time Altitude Azimuth Distance (km) Brightness Sun altitude
Rises 09:06:29 0° 274° (W) 4,755 11.4 -11.9°
Reaches altitude 10° 09:09:38 10° 269° (W) 3,790 10.8 -11.8°
Maximum altitude 09:18:46 50° 199° (SSW) 1,993 9.2 -11.2°
Drops below altitude 10° 09:28:11 10° 128° (SE) 3,901 11.0 -10.5°
Sets 09:31:29 0° 123° (ESE) 4,903 11.6 -10.3°
